OPS 4682 DEB, 26731

Orbit data source: Space-Track

OPS 4682 DEB, 26731 is space debris in LEO originally from a launch on Sat, 03 Apr 1965 UTC launched from the Air Force Western Test Range (AFWTR). Debris objects in space refer to the collection of defunct objects orbiting the Earth. Examples of debris include non-operational satellites, rocket bodies, and fragments generated from explosions, collisions, or faulty payload assembly.

Loading next visibility...
Identifier
26731, 1965-027BE
Orbit
LEO
Country
Flag of USUS
Related business
Manufacturer
Unknown
Mission
Spacecraft
Bus & Motor
Unknown
Mass
Unknown
Launch date (UTC)
1965-04-03 (61 years ago)
Launch vehicle
Unknown
Launch site
Air Force Western Test Range (AFWTR)
Object type
Payload
Rocket body
Debris
Shape & HBR
Unknown shape, 0.1 m
Radar Cross Section
Small (<0.1 m²)

Expand to show TLE details & history
Last TLE update: 1 day ago

TLE from 1 day ago
0 OPS 4682 DEB
1 26731U 65027BE  25340.35259683  .00000224  00000-0  76904-3 0  9991
2 26731  90.2520   9.9323 0022786  10.6561  13.8078 12.95261111536885
Epoch: 2025-12-06T08:27Z
TLE epoch observation values (Epoch: 2025-12-06T08:27:44.366Z)
Latitude
24.54925°
Longitude
167.50135°
Altitude
1,266.724 km
Speed
7.232 km/s
True Right ascension
00h 39m 16s
True Declination
24° 25' 41"
Sunlit
Object was in daylight at epoch
Visualization orbit readout
Latitude
Unknown
Longitude
Unknown
Altitude
Unknown
Speed
Unknown
Apparent Right ascension
Unknown
Apparent Declination
Unknown
Sunlit
N/A
Visualization observer readout
Local Sidereal Time
06:11:39
Azimuth
Unknown
Elevation
Unknown
Doppler factor
Unknown
Orbital elements
Apogee altitude
1,295.289 km
Perigee altitude
1,260.4 km
Semi-major axis
7,655.982 km
Eccentricity
0.00228
Inclination
90.252°
RAAN
9.9323°
Arg. of periapsis
10.6561°
True anomaly
13.87029°
Mean anomaly
13.8078°
Eccentric anomaly
13.83903°
Mean motion
3.23998 °/min
Orbital period
111.11 mins
BSTAR
0.00076904
Loading maneuver chart data...
Computing Atmospheric mass density...
Loading historical data...
Loading historical data...
Loading historical data...
Loading historical data...
Loading historical data...
Loading historical data...
Loading historical data...

Documentation

Showing up to 5 results
|